Location: Newark
(49.2191°N, 12.6671°E)
Time: 01:25:32
(UTC+00:00)

Transit 4A - Pass Details

Date: 28 January 2020
Orbit: 872 x 973 km, 66.8° (Epoch: 19 February)

Event Time Altitude Azimuth Distance (km) Brightness Sun altitude
Rises 10:11:03 0° 314° (NW) 3,489 10.4 20.7°
Reaches altitude 10° 10:14:48 10° 337° (NNW) 2,538 9.7 20.9°
Maximum altitude 10:18:03 15° 11° (NNE) 2,197 9.5 21.0°
Drops below altitude 10° 10:21:17 10° 45° (NE) 2,529 10.0 21.2°
Sets 10:25:00 0° 69° (ENE) 3,469 10.8 21.3°
